KD7KCN-5 Weather Reports


Display with metric or nautical units.
time (UTC)temp
F
wind
direction
speed
MPH
gust
MPH
rain 1hr
in
rain 24hr
in
rain mn
in
humidity
%
barometer
mb
20260901221544 77 154 23.0 33.0 0.00 0.04 0.00 31 1015.7
20260901220544 77 164 17.0 34.0 0.00 0.04 0.00 32 1015.7
20260901215544 77 149 16.0 36.0 0.00 0.04 0.00 33 1015.9
20260901214545 78 209 16.0 35.0 0.00 0.04 0.00 31 1016.0
20260901213545 77 149 16.0 40.0 0.00 0.04 0.00 32 1016.0
20260901212545 77 153 14.0 37.0 0.00 0.04 0.00 33 1016.1
20260901211545 76 132 26.0 44.0 0.00 0.04 0.00 32 1016.1
20260901210546 76 145 28.0 37.0 0.00 0.04 0.00 35 1016.3
20260901205544 77 140 25.0 37.0 0.00 0.04 0.00 35 1016.2
20260901204544 78 133 9.0 33.0 0.00 0.04 0.00 34 1016.5
20260901203544 76 141 24.0 36.0 0.00 0.04 0.00 37 1016.7
20260901201545 76 138 16.0 38.0 0.00 0.04 0.00 38 1016.8
20260901200544 75 153 19.0 39.0 0.00 0.04 0.00 40 1016.9
20260901195617 75 145 22.0 42.0 0.00 0.04 0.00 43 1016.9
20260901195544 75 145 22.0 42.0 0.00 0.04 0.00 43 1016.9
20260901194547 74 141 21.0 35.0 0.00 0.04 0.00 45 1017.2
20260901193544 74 141 15.0 27.0 0.00 0.04 0.00 46 1017.1
20260901192547 73 129 19.0 37.0 0.00 0.04 0.00 48 1017.2
20260901190545 74 162 14.0 33.0 0.00 0.04 0.00 48 1017.5
20260901185549 74 144 9.0 29.0 0.00 0.04 0.00 50 1017.6
20260901184545 73 139 11.0 29.0 0.00 0.04 0.00 52 1017.7
20260901183547 71 153 13.0 28.0 0.00 0.04 0.00 55 1017.8
20260901182544 72 130 17.0 34.0 0.00 0.04 0.00 54 1017.9
20260901181544 74 138 13.0 32.0 0.00 0.04 0.00 51 1017.8
20260901180544 72 141 19.0 37.0 0.00 0.04 0.00 53 1017.8
20260901175545 71 148 15.0 34.0 0.00 0.04 0.00 56 1018.0
20260901173544 72 156 21.0 33.0 0.00 0.04 0.00 56 1017.8
20260901171545 69 148 22.0 30.0 0.00 0.04 0.00 63 1017.9
20260901170544 69 195 22.0 32.0 0.00 0.04 0.00 64 1017.9
20260901165545 68 141 11.0 24.0 0.00 0.04 0.00 65 1018.0
20260901164544 68 125 9.0 22.0 0.00 0.04 0.00 68 1018.0
20260901163545 67 137 18.0 28.0 0.00 0.04 0.00 69 1018.0
20260901162545 65 73 6.0 12.0 0.00 0.04 0.00 72 1018.2
20260901161544 65 0 0.0 4.0 0.00 0.04 0.00 72 1018.2
20260901160544 65 0 0.0 5.0 0.00 0.04 0.00 72 1018.3
20260901155545 64 0 0.0 4.0 0.00 0.04 0.00 74 1018.3
20260901154546 63 0 0.0 3.0 0.00 0.04 0.00 75 1018.3
20260901153544 63 0 0.0 0.0 0.00 0.04 0.00 75 1018.3
20260901152545 63 0 0.0 0.0 0.00 0.04 0.00 76 1018.2
20260901151545 62 0 0.0 3.0 0.00 0.04 0.00 76 1018.2
20260901150545 62 0 0.0 4.0 0.00 0.04 0.00 76 1018.2
20260901145545 62 0 0.0 0.0 0.00 0.04 0.00 76 1018.2
20260901144545 61 0 0.0 0.0 0.00 0.04 0.00 75 1018.1
20260901143545 61 0 0.0 0.0 0.00 0.04 0.00 75 1018.1
20260901142545 61 0 0.0 1.0 0.00 0.04 0.00 75 1018.8
20260901141545 61 0 0.0 0.0 0.00 0.04 0.00 76 1018.7
20260901140545 60 0 0.0 0.0 0.00 0.04 0.00 75 1018.7
20260901135545 60 0 0.0 0.0 0.00 0.04 0.00 75 1018.6
20260901134545 60 0 0.0 0.0 0.00 0.04 0.00 75 1018.4
20260901133545 60 0 0.0 0.0 0.00 0.04 0.00 75 1018.3
20260901132546 60 0 0.0 0.0 0.00 0.04 0.00 75 1018.2
20260901131545 60 0 0.0 0.0 0.00 0.04 0.00 75 1018.3
20260901130545 60 0 0.0 0.0 0.00 0.04 0.00 75 1018.2
20260901125545 60 0 0.0 0.0 0.00 0.04 0.00 75 1018.2
20260901124545 60 0 0.0 0.0 0.00 0.04 0.00 75 1018.3
20260901123545 60 0 0.0 2.0 0.00 0.04 0.00 75 1018.3
20260901122545 60 0 0.0 3.0 0.00 0.04 0.00 75 1018.3
20260901121545 60 0 0.0 3.0 0.00 0.04 0.00 75 1018.2
20260901120545 60 121 1.0 4.0 0.00 0.04 0.00 74 1018.3
20260901115545 60 0 0.0 0.0 0.00 0.04 0.00 74 1018.2
20260901114545 60 0 0.0 3.0 0.00 0.04 0.00 74 1018.2
20260901113546 60 0 0.0 2.0 0.00 0.04 0.00 74 1018.2
20260901112545 60 122 2.0 7.0 0.00 0.04 0.00 74 1018.2
20260901111545 60 114 1.0 9.0 0.00 0.04 0.00 73 1018.1
20260901105545 60 0 0.0 6.0 0.00 0.04 0.00 73 1018.0
20260901103545 61 214 1.0 8.0 0.00 0.04 0.00 71 1017.8
20260901102545 61 157 6.0 10.0 0.00 0.04 0.00 72 1018.0
20260901101546 61 206 6.0 9.0 0.00 0.04 0.00 71 1018.0
20260901100545 61 206 4.0 12.0 0.00 0.04 0.00 71 1018.0
20260901095545 61 150 4.0 11.0 0.00 0.04 0.00 71 1018.2
20260901094545 61 155 4.0 10.0 0.00 0.04 0.00 71 1018.2
20260901093545 61 205 4.0 9.0 0.00 0.04 0.00 71 1018.3
20260901092545 61 203 5.0 9.0 0.00 0.04 0.00 70 1018.3
20260901091546 61 162 5.0 11.0 0.00 0.04 0.00 69 1018.2
20260901090547 62 156 4.0 17.0 0.00 0.04 0.00 68 1018.2
20260901085545 62 162 6.0 14.0 0.00 0.04 0.00 67 1018.1
20260901084547 62 170 7.0 14.0 0.00 0.04 0.00 67 1018.1
20260901083546 62 207 9.0 14.0 0.00 0.04 0.00 67 1018.2
20260901082546 62 202 9.0 13.0 0.00 0.04 0.00 66 1018.3
20260901081549 63 170 11.0 15.0 0.00 0.04 0.00 65 1019.1
20260901080548 63 195 9.0 15.0 0.00 0.04 0.00 64 1019.1
20260901075546 63 182 11.0 19.0 0.00 0.04 0.00 64 1019.1
20260901074546 63 157 8.0 13.0 0.00 0.04 0.00 63 1019.1
20260901073729 63 191 5.0 10.0 0.00 0.04 0.04 62 1019.0
20260901073546 63 191 5.0 10.0 0.00 0.04 0.04 62 1019.0
20260901072546 63 167 5.0 13.0 0.00 0.04 0.04 62 1019.1
20260901070548 63 0 0.0 7.0 0.00 0.04 0.04 64 1019.0
20260901065546 62 127 4.0 7.0 0.00 0.04 0.04 65 1018.8
20260901064549 61 213 1.0 6.0 0.00 0.04 0.04 67 1018.5
20260901063546 60 349 3.0 12.0 0.00 0.04 0.04 68 1018.5
20260901060548 59 330 7.0 13.0 0.00 0.04 0.04 69 1018.3
20260901055547 59 339 10.0 16.0 0.00 0.04 0.04 69 1018.4
20260901054547 60 334 8.0 13.0 0.00 0.04 0.04 69 1018.3
20260901053546 59 351 10.0 13.0 0.00 0.04 0.04 68 1018.4
20260901052547 59 344 6.0 13.0 0.00 0.04 0.04 68 1018.3
20260901051546 59 329 8.0 16.0 0.00 0.04 0.04 67 1018.4
20260901050546 59 346 11.0 16.0 0.00 0.04 0.04 67 1018.3
20260901043547 59 355 16.0 20.0 0.00 0.04 0.04 68 1018.6
20260901040546 59 336 11.0 15.0 0.00 0.04 0.04 69 1018.5
20260901031546 59 340 11.0 19.0 0.01 0.04 0.04 73 1017.8
20260901030547 58 358 8.0 18.0 0.01 0.04 0.04 75 1017.8
20260901025548 58 326 10.0 21.0 0.01 0.04 0.04 76 1017.8
20260901024548 59 249 13.0 18.0 0.02 0.04 0.04 74 1017.4
20260901023546 61 338 15.0 24.0 0.01 0.03 0.03 67 1017.3
20260901021547 62 335 14.0 28.0 0.01 0.03 0.03 68 1016.4
20260901020546 64 246 18.0 26.0 0.01 0.03 0.03 64 1015.9
20260901015549 71 348 10.0 30.0 0.01 0.03 0.03 53 1015.8
20260901014548 75 85 3.0 6.0 0.00 0.02 0.02 38 1015.3
20260901012547 75 157 2.0 19.0 0.00 0.02 0.02 39 1015.0
20260901011547 75 138 8.0 21.0 0.00 0.02 0.02 40 1014.8
20260901003547 72 168 6.0 18.0 0.01 0.02 0.02 51 1014.9
20260831235547 73 97 7.0 15.0 0.02 0.02 0.02 51 1015.4
20260831223547 77 157 20.0 38.0 0.00 0.00 0.00 41 1015.1